User: anonymous   Login
Location: Iola
(37.9240°N, 95.4000°W)
Time: 22:11:24
(UTC-06:00)
Language:

Meteor 2-10 Rocket - Orbit

View from above orbital plane
View from above orbital plane
View from above satellite
View from above satellite

Ground track
Ground track

The orbit data is extracted from the following two-line orbital elements,

1 14453U 83109B   15027.18879795  .00000143  00000-0  52371-4 0  3351
2 14453 081.1655 263.4698 0105825 066.4917 063.0497 14.24562462623373
Epoch (UTC): 27 January 2015 04:31:52
Eccentricity: 0.0105825
inclination: 81.1655°
perigee height: 734 km
apogee height: 886 km
right ascension of ascending node: 263.4698°
argument of perigee: 66.4917°
revolutions per day: 14.24562462
mean anomaly at epoch: 63.0497°
orbit number at epoch: 62337

The dashed part of the orbit path shows where the satellite is in the earth's shadow,  

DLR